Time,TemperatureF,DewpointF,PressureIn,WindDirection,WindDirectionDegrees,WindSpeedMPH,WindSpeedGustMPH,Humidity,HourlyPrecipIn,Conditions,Clouds,dailyrainin,SoftwareType,DateUTC
2018-01-22 00:02:00,44.7,45.0,30.27,SSE,165,0.0,0.0,100,0.00,,,0.00,weatherlink.com 1.10,2018-01-22 08:02:00,
2018-01-22 00:17:00,44.5,45.0,30.27,SSE,165,0.0,0.0,100,0.00,,,0.00,weatherlink.com 1.10,2018-01-22 08:17:00,
2018-01-22 01:02:00,44.4,44.0,30.28,SSE,165,0.0,0.0,100,0.00,,,0.00,weatherlink.com 1.10,2018-01-22 09:02:00,
2018-01-22 01:17:00,44.3,44.0,30.28,SSE,165,0.0,0.0,100,0.00,,,0.00,weatherlink.com 1.10,2018-01-22 09:17:00,
2018-01-22 01:32:00,44.2,44.0,30.28,SSE,165,0.0,0.0,100,0.00,,,0.00,weatherlink.com 1.10,2018-01-22 09:32:00,
2018-01-22 01:48:00,44.2,44.0,30.29,SSE,165,0.0,0.0,100,0.00,,,0.00,weatherlink.com 1.10,2018-01-22 09:48:00,
2018-01-22 02:02:00,44.1,44.0,30.29,SSE,165,0.0,0.0,100,0.00,,,0.00,weatherlink.com 1.10,2018-01-22 10:02:00,
2018-01-22 02:17:00,43.8,44.0,30.30,SSE,165,0.0,0.0,100,0.00,,,0.00,weatherlink.com 1.10,2018-01-22 10:17:00,
2018-01-22 02:33:00,43.2,43.0,30.30,SSE,165,0.0,0.0,100,0.00,,,0.00,weatherlink.com 1.10,2018-01-22 10:33:00,
2018-01-22 02:48:00,42.9,43.0,30.31,SSE,165,0.0,0.0,100,0.00,,,0.00,weatherlink.com 1.10,2018-01-22 10:48:00,
2018-01-22 03:18:00,43.0,43.0,30.32,SSE,165,0.0,0.0,100,0.00,,,0.00,weatherlink.com 1.10,2018-01-22 11:18:00,
2018-01-22 03:33:00,43.1,43.0,30.32,SSE,165,0.0,0.0,100,0.00,,,0.00,weatherlink.com 1.10,2018-01-22 11:33:00,
2018-01-22 03:48:00,43.1,43.0,30.33,SSE,165,0.0,0.0,100,0.00,,,0.00,weatherlink.com 1.10,2018-01-22 11:48:00,
2018-01-22 04:03:00,43.2,43.0,30.33,SSE,165,0.0,0.0,100,0.00,,,0.00,weatherlink.com 1.10,2018-01-22 12:03:00,
2018-01-22 04:18:00,43.2,43.0,30.33,SSE,165,0.0,0.0,100,0.00,,,0.00,weatherlink.com 1.10,2018-01-22 12:18:00,
2018-01-22 04:33:00,43.2,43.0,30.33,SSE,165,0.0,0.0,100,0.02,,,0.02,weatherlink.com 1.10,2018-01-22 12:33:00,
2018-01-22 04:48:00,43.3,43.0,30.34,SSE,165,0.0,0.0,100,0.03,,,0.03,weatherlink.com 1.10,2018-01-22 12:48:00,
2018-01-22 05:03:00,43.3,43.0,30.34,SSE,165,0.0,0.0,100,0.03,,,0.03,weatherlink.com 1.10,2018-01-22 13:03:00,
2018-01-22 05:18:00,43.3,43.0,30.34,SSE,164,0.0,0.0,100,0.03,,,0.03,weatherlink.com 1.10,2018-01-22 13:18:00,
2018-01-22 05:48:00,43.3,43.0,30.33,SSE,164,0.0,0.0,100,0.00,,,0.03,weatherlink.com 1.10,2018-01-22 13:48:00,
2018-01-22 06:03:00,43.2,43.0,30.33,SSE,164,0.0,0.0,100,0.00,,,0.03,weatherlink.com 1.10,2018-01-22 14:03:00,
2018-01-22 06:18:00,43.2,43.0,30.34,SSE,164,0.0,0.0,100,0.00,,,0.03,weatherlink.com 1.10,2018-01-22 14:18:00,
2018-01-22 06:33:00,43.2,43.0,30.34,SSE,164,0.0,0.0,100,0.00,,,0.03,weatherlink.com 1.10,2018-01-22 14:33:00,
2018-01-22 06:48:00,43.1,43.0,30.34,SSE,164,0.0,0.0,100,0.00,,,0.03,weatherlink.com 1.10,2018-01-22 14:48:00,
2018-01-22 07:03:00,43.1,43.0,30.35,SSE,164,0.0,0.0,100,0.00,,,0.03,weatherlink.com 1.10,2018-01-22 15:03:00,
2018-01-22 07:18:00,42.9,43.0,30.35,SSE,164,0.0,0.0,100,0.00,,,0.03,weatherlink.com 1.10,2018-01-22 15:18:00,
2018-01-22 07:33:00,42.7,43.0,30.35,SE,130,0.0,0.0,100,0.00,,,0.03,weatherlink.com 1.10,2018-01-22 15:33:00,
2018-01-22 07:48:00,42.5,43.0,30.36,SE,130,0.0,0.0,100,0.00,,,0.03,weatherlink.com 1.10,2018-01-22 15:48:00,
2018-01-22 08:03:00,42.5,43.0,30.37,SE,130,0.0,0.0,100,0.00,,,0.03,weatherlink.com 1.10,2018-01-22 16:03:00,
2018-01-22 08:18:00,42.6,43.0,30.38,SE,130,0.0,0.0,100,0.00,,,0.03,weatherlink.com 1.10,2018-01-22 16:18:00,
2018-01-22 08:33:00,42.5,43.0,30.39,East,100,0.0,1.0,100,0.00,,,0.03,weatherlink.com 1.10,2018-01-22 16:33:00,
2018-01-22 08:48:00,42.5,43.0,30.38,East,100,0.0,0.0,100,0.00,,,0.03,weatherlink.com 1.10,2018-01-22 16:48:00,
2018-01-22 09:03:00,42.7,43.0,30.39,East,100,0.0,0.0,100,0.00,,,0.03,weatherlink.com 1.10,2018-01-22 17:03:00,
2018-01-22 09:18:00,42.9,43.0,30.39,East,100,0.0,0.0,100,0.00,,,0.03,weatherlink.com 1.10,2018-01-22 17:18:00,
2018-01-22 09:33:00,43.2,43.0,30.39,East,100,0.0,0.0,100,0.00,,,0.03,weatherlink.com 1.10,2018-01-22 17:33:00,
2018-01-22 09:48:00,43.4,43.0,30.40,East,100,0.0,0.0,100,0.00,,,0.03,weatherlink.com 1.10,2018-01-22 17:48:00,
2018-01-22 10:03:00,43.4,43.0,30.41,East,100,0.0,0.0,100,0.00,,,0.03,weatherlink.com 1.10,2018-01-22 18:03:00,
2018-01-22 10:18:00,43.8,44.0,30.41,East,100,0.0,0.0,100,0.00,,,0.03,weatherlink.com 1.10,2018-01-22 18:18:00,
2018-01-22 10:33:00,43.9,44.0,30.41,WNW,288,0.0,3.0,100,0.00,,,0.03,weatherlink.com 1.10,2018-01-22 18:33:00,
2018-01-22 10:48:00,44.2,44.0,30.41,WNW,288,0.0,0.0,100,0.00,,,0.03,weatherlink.com 1.10,2018-01-22 18:48:00,
2018-01-22 11:03:00,44.6,45.0,30.40,WNW,288,0.0,0.0,100,0.00,,,0.03,weatherlink.com 1.10,2018-01-22 19:03:00,
2018-01-22 11:18:00,44.4,44.0,30.40,WNW,288,0.0,0.0,99,0.00,,,0.03,weatherlink.com 1.10,2018-01-22 19:18:00,
2018-01-22 11:33:00,44.5,45.0,30.40,WNW,288,0.0,1.0,100,0.00,,,0.03,weatherlink.com 1.10,2018-01-22 19:33:00,
2018-01-22 11:48:00,45.8,46.0,30.40,WNW,286,0.0,0.0,100,0.00,,,0.03,weatherlink.com 1.10,2018-01-22 19:48:00,
2018-01-22 12:04:00,47.0,47.0,30.39,WNW,286,1.0,1.0,100,0.00,,,0.03,weatherlink.com 1.10,2018-01-22 20:04:00,
2018-01-22 12:19:00,47.7,48.0,30.39,WNW,286,1.0,1.0,99,0.00,,,0.03,weatherlink.com 1.10,2018-01-22 20:19:00,
2018-01-22 12:34:00,48.4,48.0,30.37,WNW,286,0.0,1.0,97,0.00,,,0.03,weatherlink.com 1.10,2018-01-22 20:34:00,
2018-01-22 12:49:00,49.1,48.0,30.37,WNW,286,0.0,1.0,96,0.00,,,0.03,weatherlink.com 1.10,2018-01-22 20:49:00,
2018-01-22 13:04:00,49.8,49.0,30.36,South,169,0.0,2.0,95,0.00,,,0.03,weatherlink.com 1.10,2018-01-22 21:04:00,
2018-01-22 13:19:00,50.9,49.0,30.36,NE,40,0.0,5.0,92,0.00,,,0.03,weatherlink.com 1.10,2018-01-22 21:19:00,
2018-01-22 13:34:00,52.1,49.0,30.36,NNE,18,0.0,6.0,88,0.00,,,0.03,weatherlink.com 1.10,2018-01-22 21:34:00,
2018-01-22 13:49:00,52.8,48.0,30.36,NE,45,0.0,4.0,85,0.00,,,0.03,weatherlink.com 1.10,2018-01-22 21:49:00,
2018-01-22 14:04:00,53.5,49.0,30.35,NE,35,0.0,3.0,83,0.00,,,0.03,weatherlink.com 1.10,2018-01-22 22:04:00,
2018-01-22 14:19:00,53.4,47.0,30.35,ENE,78,1.0,6.0,80,0.00,,,0.03,weatherlink.com 1.10,2018-01-22 22:19:00,
2018-01-22 14:34:00,52.6,47.0,30.34,NE,34,5.0,7.0,80,0.00,,,0.03,weatherlink.com 1.10,2018-01-22 22:34:00,
2018-01-22 14:49:00,52.5,48.0,30.34,East,84,0.0,3.0,83,0.00,,,0.03,weatherlink.com 1.10,2018-01-22 22:49:00,
2018-01-22 15:04:00,51.7,47.0,30.34,NE,38,0.0,4.0,85,0.00,,,0.03,weatherlink.com 1.10,2018-01-22 23:04:00,
2018-01-22 15:19:00,51.1,46.0,30.33,ENE,59,0.0,5.0,83,0.00,,,0.03,weatherlink.com 1.10,2018-01-22 23:19:00,
2018-01-22 15:34:00,50.8,46.0,30.32,ENE,69,0.0,3.0,83,0.00,,,0.03,weatherlink.com 1.10,2018-01-22 23:34:00,
2018-01-22 15:49:00,50.6,46.0,30.32,NNE,30,0.0,3.0,85,0.00,,,0.03,weatherlink.com 1.10,2018-01-22 23:49:00,
2018-01-22 16:04:00,49.3,47.0,30.32,NNE,30,0.0,0.0,90,0.00,,,0.03,weatherlink.com 1.10,2018-01-23 00:04:00,
2018-01-22 16:19:00,48.8,47.0,30.32,NNE,30,0.0,1.0,92,0.00,,,0.03,weatherlink.com 1.10,2018-01-23 00:19:00,
2018-01-22 17:04:00,45.6,44.0,30.33,NNE,30,0.0,0.0,95,0.00,,,0.03,weatherlink.com 1.10,2018-01-23 01:04:00,
2018-01-22 17:19:00,44.7,44.0,30.33,NNE,30,0.0,0.0,96,0.00,,,0.03,weatherlink.com 1.10,2018-01-23 01:19:00,
2018-01-22 17:34:00,43.8,43.0,30.34,NNE,30,0.0,0.0,97,0.00,,,0.03,weatherlink.com 1.10,2018-01-23 01:34:00,
2018-01-22 17:49:00,43.1,42.0,30.33,NNE,30,0.0,0.0,97,0.00,,,0.03,weatherlink.com 1.10,2018-01-23 01:49:00,
2018-01-22 18:04:00,42.9,42.0,30.34,NNE,30,0.0,0.0,98,0.00,,,0.03,weatherlink.com 1.10,2018-01-23 02:04:00,
2018-01-22 18:19:00,42.2,42.0,30.34,NNE,30,0.0,0.0,98,0.00,,,0.03,weatherlink.com 1.10,2018-01-23 02:19:00,
2018-01-22 19:04:00,41.5,41.0,30.35,NNE,30,0.0,0.0,99,0.00,,,0.03,weatherlink.com 1.10,2018-01-23 03:04:00,
2018-01-22 19:19:00,41.6,41.0,30.35,East,89,0.0,2.0,99,0.00,,,0.03,weatherlink.com 1.10,2018-01-23 03:19:00,
2018-01-22 19:34:00,41.3,41.0,30.36,East,89,0.0,0.0,100,0.00,,,0.03,weatherlink.com 1.10,2018-01-23 03:34:00,
2018-01-22 19:49:00,41.0,41.0,30.36,East,89,0.0,0.0,99,0.00,,,0.03,weatherlink.com 1.10,2018-01-23 03:49:00,
2018-01-22 20:04:00,40.9,41.0,30.36,East,89,0.0,1.0,100,0.00,,,0.03,weatherlink.com 1.10,2018-01-23 04:04:00,
2018-01-22 20:19:00,40.7,41.0,30.37,ENE,76,0.0,1.0,100,0.00,,,0.03,weatherlink.com 1.10,2018-01-23 04:19:00,
2018-01-22 20:34:00,40.5,41.0,30.37,ENE,76,0.0,0.0,100,0.00,,,0.03,weatherlink.com 1.10,2018-01-23 04:34:00,
2018-01-22 20:49:00,40.3,40.0,30.37,ENE,76,0.0,0.0,100,0.00,,,0.03,weatherlink.com 1.10,2018-01-23 04:49:00,
2018-01-22 21:04:00,40.0,40.0,30.36,SW,232,0.0,1.0,100,0.00,,,0.03,weatherlink.com 1.10,2018-01-23 05:04:00,
2018-01-22 21:19:00,40.0,40.0,30.35,SW,232,0.0,1.0,100,0.00,,,0.03,weatherlink.com 1.10,2018-01-23 05:19:00,
2018-01-22 21:34:00,39.7,40.0,30.36,SW,224,1.0,3.0,100,0.00,,,0.03,weatherlink.com 1.10,2018-01-23 05:34:00,
2018-01-22 21:49:00,39.4,39.0,30.38,NNE,33,0.0,2.0,100,0.00,,,0.03,weatherlink.com 1.10,2018-01-23 05:49:00,
2018-01-22 22:04:00,39.5,40.0,30.38,NNE,33,0.0,0.0,100,0.00,,,0.03,weatherlink.com 1.10,2018-01-23 06:04:00,
2018-01-22 22:19:00,39.4,39.0,30.38,NNW,342,0.0,0.0,100,0.00,,,0.03,weatherlink.com 1.10,2018-01-23 06:19:00,
2018-01-22 22:34:00,39.3,39.0,30.38,NNW,342,0.0,0.0,100,0.00,,,0.03,weatherlink.com 1.10,2018-01-23 06:34:00,
2018-01-22 22:50:00,39.2,39.0,30.37,NNW,342,0.0,0.0,100,0.00,,,0.03,weatherlink.com 1.10,2018-01-23 06:50:00,